Theta_e
293 293 293 294 295 296 297 298 299 300 300 300 299 299 300 300 299 298 299 297 297 298 298 295 295 297 298 298 299 299 302 301 301 302 302 304 307 305 307 305 304 307 309 309 309 309 309 304 304 304 303 303 303 301
292 292 292 293 294 294 295 296 297 298 298 299 299 300 300 299 300 299 299 298 295 295 297 294 293 293 292 293 297 298 298 300 300 303 305 306 306 302 301 302 303 306 305 305 305 305 303 301 302 301 300 300 299 299
291 292 292 292 293 293 294 294 295 297 297 297 297 298 298 299 299 299 299 298 297 293 295 294 295 292 293 292 293 298 297 296 300 298 301 303 305 301 302 300 304 302 302 303 302 302 301 301 300 298 296 297 294 293
291 291 292 292 292 292 293 293 294 296 297 297 297 299 298 298 298 298 298 297 297 293 294 297 292 291 291 291 292 293 295 296 296 298 300 301 302 301 302 300 300 299 299 298 298 300 299 299 298 298 295 292 290 287
290 291 291 292 291 291 292 292 293 295 295 296 297 299 299 298 299 298 297 296 295 296 296 297 291 289 289 290 292 292 294 295 297 299 300 302 299 299 296 295 296 297 299 300 301 298 298 298 296 292 293 289 286 285
290 290 290 291 291 290 291 291 292 294 295 294 296 299 298 299 299 299 293 294 294 295 294 297 291 288 287 288 290 291 292 293 295 296 295 296 295 299 296 293 298 295 293 296 299 296 293 290 285 284 285 282 282 282
290 290 290 290 291 289 290 291 291 293 294 294 291 294 297 298 298 296 295 292 293 294 295 298 298 287 284 286 290 291 291 293 294 296 297 298 296 298 296 300 299 294 293 293 287 288 290 285 289 283 282 280 279 278
290 290 290 290 290 289 289 290 290 290 293 294 293 292 292 293 294 292 290 292 293 294 293 297 297 288 283 292 293 290 292 292 293 292 292 293 294 295 297 291 292 294 295 286 283 281 282 279 278 277 276 275 274 274
291 291 290 290 290 289 289 290 290 289 293 293 292 291 290 286 289 288 287 286 292 293 298 297 297 293 282 287 287 290 291 293 290 292 292 286 290 294 291 291 288 287 287 282 274 273 274 275 276 274 273 273 274 273
291 290 290 290 289 289 288 290 290 287 285 289 290 289 287 287 287 287 287 285 289 289 287 292 282 291 283 286 291 288 291 292 294 286 283 284 285 288 289 289 280 277 276 274 274 273 272 274 275 275 276 276 276 275
290 290 290 290 289 289 288 289 288 283 288 290 287 285 284 287 286 282 284 283 280 281 282 280 279 287 279 285 288 287 290 288 288 283 282 285 289 289 279 274 271 272 271 270 271 271 273 276 276 276 276 276 275 274
291 290 290 290 289 287 289 288 286 283 283 283 283 282 283 281 280 282 280 275 276 283 275 278 277 277 276 277 280 278 284 281 285 275 280 282 287 280 273 270 268 267 268 265 263 265 265 268 271 273 274 273 272 270
292 291 289 290 290 288 289 287 286 286 280 280 282 282 281 279 281 280 279 280 278 275 272 272 275 277 274 276 277 279 280 282 273 276 281 285 282 273 267 263 261 259 262 265 263 263 265 264 268 268 263 268 268 266
292 292 290 290 290 287 289 288 287 285 280 282 282 282 284 283 281 283 284 283 273 275 273 276 272 276 275 276 278 280 276 273 277 279 284 286 277 271 265 263 261 260 260 262 261 260 262 263 261 267 268 268 266 263
291 292 292 291 290 288 288 288 288 286 279 281 282 284 286 284 278 270 265 268 268 272 274 273 272 277 275 278 275 275 275 277 281 284 284 278 271 265 264 263 263 262 261 260 259 259 259 262 261 261 264 266 267 265
291 292 291 291 291 288 288 288 286 281 277 278 278 283 277 279 281 272 270 274 269 272 272 274 274 275 277 276 274 278 281 283 286 286 278 269 265 265 264 263 265 264 263 260 260 261 261 261 260 261 262 264 264 265
291 292 290 290 289 287 287 286 278 275 276 279 280 275 278 279 282 276 275 274 271 276 281 279 278 282 273 274 277 279 281 286 288 281 272 270 270 268 266 264 264 264 264 264 262 262 262 262 263 261 257 261 262 263
291 291 290 289 289 287 285 280 276 275 275 278 280 277 272 270 272 270 268 269 272 275 277 280 276 277 278 280 281 283 283 281 274 273 272 268 266 265 267 267 265 265 264 264 263 263 262 261 260 260 263 262 261 261
291 291 290 290 289 287 283 276 273 276 276 271 270 268 268 266 263 263 265 267 265 266 271 272 276 277 279 282 284 283 280 276 276 272 269 267 266 265 266 267 266 265 265 263 262 262 262 262 263 264 265 262 261 261
292 291 291 291 289 286 285 278 269 273 274 271 267 268 269 267 264 264 265 265 267 270 269 272 275 280 282 282 275 274 274 272 274 274 274 268 266 266 266 267 266 266 265 264 264 264 263 262 264 265 265 264 263 263
292 292 291 289 286 286 286 278 274 272 267 269 265 267 268 264 265 265 266 266 268 269 271 273 276 275 272 270 268 267 269 270 274 274 275 273 266 267 267 268 267 266 265 264 263 262 263 264 264 264 264 264 264 264
290 289 287 284 282 279 278 271 273 267 269 266 266 266 267 266 264 264 266 266 267 270 272 271 269 267 266 267 265 266 266 266 268 267 267 268 267 267 266 266 265 266 266 266 265 265 264 264 265 264 264 264 263 263
287 286 281 280 282 281 275 267 273 269 276 271 266 269 268 265 262 262 263 265 268 268 266 264 263 264 261 264 264 265 265 265 267 269 268 268 268 268 267 266 266 267 267 266 266 266 266 265 264 264 263 262 262 261
285 281 281 281 282 277 269 269 270 270 270 271 273 277 273 267 260 262 265 267 269 264 263 262 260 261 262 261 261 263 266 265 267 268 267 268 268 266 266 266 266 266 267 266 265 265 264 264 263 262 262 261 261 261
284 284 282 281 273 272 272 269 270 270 273 274 275 276 268 261 266 266 266 269 266 264 263 259 259 260 261 262 262 261 264 265 267 269 265 266 266 265 264 264 264 263 264 263 262 262 262 262 261 261 261 261 260 260
286 284 281 281 273 274 273 272 271 273 275 275 275 266 264 268 270 273 270 267 265 262 260 260 260 261 262 260 260 261 261 263 264 267 263 263 264 266 268 268 267 263 262 262 262 262 261 261 260 260 260 260 260 260
285 283 273 269 273 273 271 272 273 274 275 276 272 267 269 274 276 273 264 262 262 261 262 262 262 261 261 262 262 261 261 262 262 261 261 261 261 262 262 263 262 261 261 261 261 262 262 261 261 260 260 260 261 261
281 276 278 271 272 274 276 274 274 275 276 274 270 270 274 277 277 267 266 262 262 261 262 262 261 261 261 261 260 260 260 260 260 260 260 260 260 260 260 261 261 261 261 261 261 261 261 261 261 261 260 260 261 260
274 271 273 273 272 273 275 276 276 276 272 272 275 276 275 268 266 266 263 262 262 262 262 262 261 261 260 259 259 259 259 260 260 261 261 260 259 259 260 260 261 261 261 261 260 261 261 261 261 261 261 260 260 260
271 271 275 274 275 275 272 267 269 265 265 265 266 268 268 266 263 262 262 261 262 264 264 263 262 262 262 261 259 259 259 259 259 260 259 259 259 259 260 260 261 261 261 262 262 261 261 261 260 261 260 260 260 259
269 271 274 275 273 265 263 263 263 264 264 265 264 267 267 265 262 261 261 261 262 263 263 263 262 261 261 261 260 257 258 261 261 261 261 261 261 261 261 261 261 261 261 261 261 261 261 260 260 260 260 260 260 259
269 272 273 272 266 262 262 265 265 266 264 265 265 263 265 266 268 261 258 259 261 262 263 262 262 260 260 261 261 261 262 262 262 261 262 262 262 262 262 262 262 262 262 261 261 261 261 261 261 260 260 259 259 259
267 268 267 266 264 264 262 265 265 264 264 264 262 260 261 263 266 259 258 257 258 258 259 260 260 260 261 262 262 262 262 262 262 262 261 262 262 262 262 263 263 263 262 262 262 262 261 261 260 260 259 258 258 258
Wind_Speed
22 21 22 22 21 19 14 12 11 8 7 7 5 4 3 3 4 2 4 5 4 2 4 4 3 4 2 2 2 1 3 2 4 6 5 4 4 4 1 4 7 11 7 5 6 9 16 7 4 12 11 3 5 6
19 20 20 19 20 18 16 9 6 4 4 4 5 8 9 9 5 3 3 4 6 2 4 3 5 4 2 1 0 3 1 2 4 6 3 3 2 1 4 3 5 4 9 5 6 6 6 9 10 13 6 7 4 3
16 17 19 18 18 18 17 15 11 9 10 8 11 13 13 10 7 5 4 3 3 1 3 2 3 5 3 1 1 1 1 1 3 2 1 2 3 3 4 5 2 7 7 5 1 11 9 5 3 4 4 5 6 5
14 14 16 17 17 17 17 16 12 10 12 12 13 12 11 10 8 7 5 5 2 0 2 2 1 2 2 2 3 4 3 2 2 1 3 1 3 2 2 2 3 6 6 7 5 11 3 8 6 7 6 4 5 4
13 13 13 15 16 16 17 16 13 5 9 14 13 10 5 8 7 6 5 3 3 2 3 4 3 3 3 3 4 3 2 1 1 1 1 1 1 1 2 1 5 6 8 5 9 6 7 10 4 1 6 5 5 6
12 12 12 13 15 16 17 17 14 8 8 12 10 6 2 4 5 2 2 1 1 2 2 3 3 1 1 1 3 3 2 0 1 2 2 3 0 2 1 3 13 3 5 9 14 3 5 2 3 2 3 3 2 6
12 11 11 12 13 15 15 15 14 9 7 8 10 7 2 4 6 3 3 3 1 1 1 3 3 1 1 2 2 1 2 1 1 1 2 2 2 2 3 10 26 4 5 6 3 5 4 6 5 6 6 6 7 8
11 12 11 12 12 14 14 14 15 9 4 8 9 9 7 5 2 2 3 3 5 2 1 3 3 1 3 2 2 2 3 2 4 2 1 2 1 2 6 5 5 11 11 4 4 3 2 5 5 4 4 4 5 5
10 10 11 11 12 12 12 14 14 10 2 5 9 11 5 2 1 1 3 3 4 4 2 3 3 3 3 1 1 2 2 3 1 2 2 2 3 8 8 10 6 6 6 5 3 4 4 3 5 5 4 5 6 6
10 10 10 10 11 11 12 14 15 14 8 7 4 1 2 1 3 3 2 1 1 1 1 3 2 3 1 0 1 1 2 2 3 3 2 3 4 8 10 10 3 5 7 8 5 2 1 3 7 8 9 7 6 8
9 8 8 9 10 11 10 13 14 10 1 2 1 2 1 1 1 2 1 1 2 3 2 1 1 2 2 2 2 1 0 1 2 3 3 3 4 5 1 2 4 4 4 2 3 2 3 1 5 7 7 6 6 10
10 9 9 9 10 11 9 11 13 5 2 1 1 0 1 2 3 2 3 2 2 4 1 2 2 1 1 2 2 2 1 2 5 1 1 4 4 4 3 3 1 4 4 6 4 3 4 5 2 5 6 6 8 13
12 10 10 9 10 8 7 9 13 12 3 1 1 1 3 2 1 6 5 4 2 2 3 2 0 1 1 1 1 2 2 5 1 1 4 6 3 2 2 3 2 3 3 5 3 2 5 4 6 8 5 12 16 15
13 14 12 10 10 6 6 9 11 9 1 2 3 4 5 4 5 5 4 3 2 2 2 2 2 1 0 2 1 3 3 2 2 3 7 3 4 3 4 4 5 4 3 4 4 3 3 5 5 13 18 21 22 19
15 14 16 14 12 7 11 10 11 6 3 2 3 5 6 2 1 2 2 0 2 1 2 2 2 1 1 2 3 2 3 5 6 5 4 3 3 4 4 4 5 6 6 4 3 3 3 4 3 5 13 17 17 20
14 15 17 16 15 13 12 10 6 4 0 2 3 2 1 1 2 2 3 2 3 2 1 1 3 2 5 4 3 9 4 7 4 4 3 3 3 4 5 5 6 5 6 4 5 6 6 6 6 6 8 10 15 20
13 9 6 8 14 15 12 4 2 1 3 3 4 1 0 1 2 2 1 2 4 3 3 2 4 10 1 1 4 5 5 4 3 3 2 4 4 5 6 5 6 6 6 7 7 9 9 9 11 13 5 10 11 13
20 12 11 13 16 11 5 8 2 1 6 4 2 1 1 1 1 2 2 2 3 2 1 5 0 4 6 5 4 4 5 3 2 2 2 2 2 2 5 7 6 9 8 10 11 11 12 12 7 6 10 16 14 12
24 21 17 21 17 7 3 3 3 4 5 1 1 1 1 2 2 1 1 1 2 1 1 2 4 4 5 4 4 3 1 1 2 2 2 1 0 2 3 8 12 9 11 12 12 10 12 16 11 14 14 17 11 15
26 24 20 22 26 7 3 2 2 2 3 1 1 2 0 2 2 1 2 3 2 1 2 4 6 4 3 1 2 1 1 2 1 2 3 2 3 2 3 5 5 11 11 10 11 11 11 10 14 11 15 17 13 13
24 22 16 28 15 12 3 4 2 3 3 2 1 1 1 2 2 3 2 4 2 4 4 6 5 1 1 1 2 2 3 1 2 1 2 1 2 5 6 5 9 10 6 6 5 6 9 9 13 19 17 17 17 13
13 27 15 17 4 3 1 4 1 1 2 1 1 2 2 2 3 2 3 3 4 4 5 2 1 1 3 2 2 3 6 7 6 2 1 2 2 1 2 5 5 3 5 7 9 7 10 14 13 14 17 16 14 14
26 18 7 6 5 6 2 2 3 3 3 3 1 2 2 2 2 2 3 4 4 3 1 1 1 1 3 7 6 8 5 4 2 1 1 1 5 4 6 7 10 4 3 6 10 10 9 10 13 14 13 13 14 13
11 8 6 7 8 4 3 2 0 2 2 2 3 3 3 2 2 2 4 3 3 1 1 1 1 3 2 2 2 2 0 2 3 1 1 0 1 2 3 4 5 4 2 5 7 8 8 9 10 13 14 14 14 14
6 7 5 6 2 5 5 5 4 3 4 4 4 3 3 2 2 4 4 3 1 1 1 0 1 2 2 3 2 1 4 4 2 1 4 4 2 3 2 2 2 2 3 4 4 5 6 9 10 12 14 15 14 14
7 8 10 8 3 6 7 7 7 7 3 5 5 2 2 2 2 6 3 2 1 1 1 1 1 1 2 0 2 2 5 6 4 1 3 4 3 2 1 0 1 1 1 4 3 6 7 9 11 11 12 11 11 11
7 6 2 1 4 3 3 2 2 3 6 6 4 5 3 4 6 4 0 0 1 1 2 1 2 1 1 1 3 3 3 5 5 4 3 3 3 2 2 2 1 2 3 2 6 4 5 7 8 10 10 9 10 11
2 4 8 6 2 1 5 5 6 7 4 3 6 6 6 6 3 0 1 1 3 5 5 4 3 3 3 3 2 1 1 2 3 4 5 7 5 5 4 6 6 6 5 2 3 5 2 2 3 3 4 5 5 5
3 3 4 4 3 3 5 5 6 4 1 4 5 4 3 2 1 1 2 2 5 5 4 3 1 2 2 3 3 2 2 2 1 2 1 1 1 5 4 5 5 7 8 9 8 6 4 3 0 0 1 3 4 6
3 1 3 3 6 6 2 2 2 1 2 2 1 1 1 1 2 2 3 3 2 0 2 2 1 0 0 1 2 5 5 4 2 1 3 2 2 3 5 7 6 5 6 7 9 9 4 3 5 3 2 3 5 8
1 1 3 2 2 2 2 1 1 1 1 1 1 1 1 1 2 3 2 1 0 1 2 2 1 1 3 3 2 2 1 5 8 8 7 8 8 9 9 8 7 6 5 4 3 1 2 3 5 6 8 10 11 12
1 1 2 3 2 1 1 1 1 2 1 1 1 1 0 1 1 1 6 4 1 2 1 0 1 1 2 2 2 2 4 10 8 7 9 10 11 10 10 8 7 6 5 4 3 4 6 8 10 11 13 15 16 17
2 2 2 3 2 2 1 2 1 2 1 1 1 1 1 1 1 2 6 4 1 0 1 1 2 4 4 4 4 7 9 8 6 6 7 8 8 8 8 6 5 4 4 5 7 9 10 12 15 16 17 19 21 23
Wind_Direction
12 14 15 21 25 24 35 45 47 57 60 65 69 106 81 26 8 273 277 244 182 243 257 194 233 260 291 303 148 191 96 162 171 208 202 219 210 182 290 205 177 186 187 199 219 231 247 202 95 187 218 155 215 201
9 12 11 13 17 20 20 15 10 10 353 324 290 271 274 287 291 266 272 249 219 223 270 226 244 251 247 221 191 204 229 167 200 195 202 197 102 155 186 232 179 199 201 192 174 215 217 191 199 218 201 212 229 185
4 7 7 6 9 12 12 9 1 353 343 312 290 289 267 259 251 244 271 254 223 294 274 242 222 220 228 211 242 224 183 166 234 323 199 203 160 167 177 244 235 225 216 211 208 250 237 236 225 163 140 192 181 179
0 360 2 3 2 4 5 3 357 350 345 338 323 308 259 234 236 239 229 257 201 264 279 245 182 201 254 268 249 246 289 241 275 239 251 197 125 175 225 262 208 204 153 206 259 260 3 302 251 211 222 194 181 167
351 354 354 356 356 358 0 360 356 341 342 334 337 323 222 208 213 231 236 241 207 183 264 288 176 187 227 237 238 211 258 262 6 310 316 260 245 137 176 112 254 196 213 197 236 231 190 239 222 113 202 206 201 169
346 345 348 348 349 351 356 357 357 345 350 350 356 355 177 186 185 215 351 264 202 170 263 281 110 156 235 229 189 165 164 125 261 210 221 241 266 94 297 246 258 177 197 205 251 246 198 134 111 101 133 122 102 137
340 340 341 341 344 345 352 355 355 359 355 339 3 13 11 246 215 188 209 195 206 151 246 283 260 167 323 297 190 180 159 211 255 285 258 325 61 154 233 247 252 284 238 226 188 132 258 179 222 135 112 91 98 92
330 336 334 338 340 343 348 349 352 347 338 299 322 329 345 358 330 251 295 253 189 181 207 252 259 42 351 202 187 189 179 194 197 245 118 198 180 228 246 259 230 238 250 227 174 85 124 102 86 85 94 114 109 128
325 326 327 328 334 338 341 343 341 333 274 271 297 307 304 225 209 220 271 319 216 217 243 195 232 257 339 348 342 197 240 222 82 237 201 114 214 227 231 248 226 213 194 186 92 90 106 140 168 151 131 158 150 163
320 322 324 321 327 329 333 340 333 326 305 248 296 353 302 249 314 1 352 337 293 302 270 244 60 215 27 121 169 346 207 260 256 238 56 217 253 264 249 252 192 161 154 136 107 294 170 214 190 191 200 185 177 169
311 318 321 329 329 330 334 338 337 342 5 166 159 214 250 162 68 37 284 114 334 296 195 281 88 140 330 134 189 354 25 6 269 249 155 257 261 243 165 87 40 97 144 121 88 64 14 96 183 176 177 158 143 151
290 304 311 321 326 332 343 346 357 7 343 217 213 122 85 46 33 72 235 332 182 236 286 150 172 41 28 348 91 298 193 58 248 152 69 265 244 237 163 170 106 61 97 82 39 55 24 55 50 126 137 129 127 136
274 282 300 299 304 322 336 337 350 347 309 174 100 47 99 274 63 172 225 270 270 195 190 171 134 126 26 354 54 102 141 227 53 76 231 236 261 282 181 120 61 4 87 124 123 108 89 78 94 122 118 137 143 142
262 264 277 288 285 282 299 329 342 338 248 151 146 259 186 211 239 199 194 180 219 91 119 100 76 144 161 83 151 150 237 53 285 250 238 243 228 248 178 159 130 199 188 162 164 153 146 151 155 154 161 161 156 154
262 267 267 262 276 253 270 305 323 321 195 204 123 234 220 246 125 103 90 57 231 343 103 71 42 144 187 181 194 65 355 248 211 234 236 234 229 188 185 184 178 171 179 178 158 155 175 164 151 140 163 167 168 161
261 275 264 255 255 224 258 292 300 212 187 170 234 255 151 356 208 189 175 180 173 140 66 16 131 100 242 171 142 215 186 225 241 224 232 161 216 215 200 184 187 171 165 158 151 155 153 151 148 155 154 168 175 175
245 238 230 220 203 220 250 280 209 211 218 219 249 61 296 317 231 101 121 114 165 173 172 150 184 221 64 194 240 201 216 233 223 248 224 205 206 201 182 165 164 158 158 157 153 157 154 153 151 147 146 176 182 192
227 231 211 205 223 236 221 191 190 147 249 233 222 125 135 51 83 117 115 163 169 205 175 191 48 198 217 210 237 231 242 280 245 253 270 259 237 182 170 163 152 161 155 159 167 164 162 160 161 187 182 182 175 181
227 233 236 204 221 190 185 219 180 225 223 136 95 107 54 78 70 71 64 117 48 354 293 146 239 222 233 227 246 287 316 252 295 310 289 334 202 185 163 151 151 151 159 163 170 180 186 193 194 192 185 179 182 193
228 229 225 213 212 171 218 187 193 242 240 176 99 170 76 65 90 127 147 163 190 210 193 216 222 223 215 14 33 298 279 298 276 306 269 206 174 172 178 172 179 154 152 164 179 181 172 184 205 189 194 196 184 192
222 220 213 186 190 211 237 161 209 198 135 178 104 204 126 154 179 179 175 168 196 218 235 230 239 265 85 153 208 251 277 276 275 268 307 279 166 173 152 160 165 157 157 167 179 196 195 203 206 204 198 201 204 206
179 181 171 183 176 185 273 42 103 119 114 109 177 179 199 194 191 193 127 193 232 237 215 229 270 344 338 326 308 273 286 298 285 248 201 139 128 169 174 167 165 201 191 185 189 191 200 211 204 203 206 212 205 204
162 163 129 145 183 196 187 160 157 177 212 169 137 226 216 195 158 94 241 225 253 234 178 219 275 267 238 291 301 284 268 266 268 255 243 63 79 101 130 163 189 178 181 198 210 202 196 201 204 206 202 199 200 203
148 148 160 195 194 148 133 137 173 137 127 197 195 228 181 143 134 182 254 250 235 121 145 241 11 320 303 293 274 287 167 236 295 73 7 323 122 69 81 132 177 186 167 147 184 193 196 197 197 201 202 199 201 208
136 195 187 189 117 121 152 152 175 182 235 170 199 219 170 144 192 227 234 261 224 211 170 153 241 223 217 291 316 5 23 1 331 26 40 25 85 120 112 115 128 176 203 184 183 194 199 198 197 200 203 205 208 217
190 186 185 185 154 169 174 162 191 195 170 180 209 106 167 168 224 242 225 218 207 166 183 168 149 356 310 156 306 15 347 356 341 30 47 29 22 353 14 91 141 69 322 210 188 184 188 200 201 202 208 216 222 226
189 175 133 19 123 120 92 78 100 159 184 191 164 160 162 210 236 242 225 5 121 154 132 83 15 333 325 103 73 39 33 39 66 88 77 58 57 66 58 83 81 4 344 222 203 201 213 210 211 218 224 230 239 243
148 146 164 169 151 186 142 167 179 191 180 159 135 186 196 206 244 158 70 97 138 134 117 100 95 101 100 95 104 73 39 63 81 93 85 66 63 63 114 103 77 55 53 80 153 183 162 164 207 224 229 245 262 260
126 147 122 129 124 186 205 189 197 182 109 166 185 195 200 73 33 75 100 128 141 142 157 174 130 96 73 58 46 63 100 91 27 65 58 350 352 20 58 148 105 74 69 79 81 87 105 75 69 269 299 286 287 286
128 169 103 144 164 197 136 5 82 77 38 48 36 134 118 88 67 73 108 141 162 155 115 110 131 183 97 132 94 66 72 55 67 117 153 199 181 107 111 125 116 93 84 89 100 110 112 79 59 55 355 316 306 301
86 120 101 112 104 59 64 73 84 78 54 68 30 29 69 93 106 44 71 37 328 174 155 170 115 115 128 123 125 112 45 91 99 92 91 97 108 112 113 111 105 98 93 91 98 64 8 342 339 334 326 319 314 309
100 119 115 124 115 102 212 91 82 82 63 116 77 358 309 218 143 64 4 5 286 214 185 145 163 175 146 129 144 167 149 140 121 105 102 102 106 106 103 98 91 84 75 60 25 351 339 331 323 317 311 307 307 306
87 69 80 107 107 133 188 129 103 93 51 83 63 21 40 15 65 340 6 1 11 353 106 167 151 151 128 116 119 131 148 154 147 128 115 109 105 101 97 92 81 57 20 352 340 333 326 318 313 310 307 307 308 309